Language: 


Des rapports , des résumés tant et plus, au choix de chacun....


Données statistiques de la station
Quotidien Rapport Juillet 9, 2017 Unités:  Métrique    Anglais   les deux
« Précédent Jour
Suivant Jour »
Quotidien Hebdomadaire Mensuel Annuel Actuel
  Haut: Bas: Moyen:
Température: 30.0 °C 0.0 °C 20.8 °C
Pt de rosée: 16.0 °C 10.0 °C 12.8 °C
Humidité: 97 % 0 % 66 %
Vitesse du vent: 14.0 km/h 0.0 km/h 4.5 km/h
Rafales: 16.9 km/h - -
Vent:- - East
Pression: 1016.8 hPa 1010.0 hPa -
Précipitation: 0.0 mm    
Historical Graphs
 
 
Données statistiques pour Juillet 9, 2017
Heure Température Point de rosée Pression Vent Vitesse du vent Refales Humidité Pluie (taux horaire)
00:04 15.9 °C 14.0 °C 1016.8 hPa Calm   4.0 km/h 86 % 0.0 mm
00:09 15.9 °C 14.0 °C 1016.8 hPa Calm     87 % 0.0 mm
00:14 15.8 °C 14.0 °C 1016.8 hPa Calm     87 % 0.0 mm
00:19 15.8 °C 14.0 °C 1016.8 hPa Calm     87 % 0.0 mm
00:24 15.3 °C 13.0 °C 1016.8 hPa Calm     86 % 0.0 mm
00:29 15.1 °C 13.0 °C 1016.8 hPa Calm     86 % 0.0 mm
00:34 14.9 °C 13.0 °C 1016.8 hPa Calm     86 % 0.0 mm
00:39 14.7 °C 13.0 °C 1016.8 hPa Calm     86 % 0.0 mm
00:44 14.5 °C 13.0 °C 1016.8 hPa Calm     86 % 0.0 mm
00:49 14.5 °C 13.0 °C 1016.8 hPa Calm     87 % 0.0 mm
00:54 14.7 °C 13.0 °C 1016.8 hPa Calm   4.7 km/h 89 % 0.0 mm
00:59 14.8 °C 13.0 °C 1016.8 hPa Calm   4.7 km/h 90 % 0.0 mm
01:04 14.8 °C 13.0 °C 1016.8 hPa Calm     90 % 0.0 mm
01:09 14.8 °C 13.0 °C 1016.8 hPa Calm     90 % 0.0 mm
01:14 14.7 °C 13.0 °C 1016.8 hPa Calm   2.6 km/h 90 % 0.0 mm
01:19 14.7 °C 13.0 °C 1016.8 hPa Calm   2.6 km/h 91 % 0.0 mm
01:24 14.7 °C 13.0 °C 1016.8 hPa Calm   5.5 km/h 91 % 0.0 mm
01:29 14.7 °C 13.0 °C 1016.8 hPa Calm   7.9 km/h 91 % 0.0 mm
01:35 14.8 °C 13.0 °C 1016.8 hPa North 5.0 km/h 7.9 km/h 92 % 0.0 mm
01:40 14.8 °C 13.0 °C 1016.8 hPa Calm   5.8 km/h 92 % 0.0 mm
01:45 14.8 °C 13.0 °C 1016.8 hPa NNW 1.4 km/h 6.4 km/h 92 % 0.0 mm
01:50 14.8 °C 13.0 °C 1016.8 hPa NNE 4.3 km/h 6.9 km/h 92 % 0.0 mm
01:55 14.7 °C 13.0 °C 1016.8 hPa NNE 5.5 km/h 7.9 km/h 92 % 0.0 mm
02:00 14.7 °C 13.0 °C 1016.8 hPa NNE 3.5 km/h 9.0 km/h 92 % 0.0 mm
02:05 14.7 °C 14.0 °C 1016.8 hPa NNE 6.4 km/h 9.0 km/h 93 % 0.0 mm
02:10 14.6 °C 14.0 °C 1016.8 hPa NNE 6.9 km/h 7.9 km/h 93 % 0.0 mm
02:15 14.6 °C 14.0 °C 1016.8 hPa NE 5.8 km/h 7.9 km/h 93 % 0.0 mm
02:20 14.5 °C 14.0 °C 1016.8 hPa ENE 5.5 km/h 7.9 km/h 93 % 0.0 mm
02:25 14.5 °C 14.0 °C 1016.8 hPa Calm   7.9 km/h 93 % 0.0 mm
02:30 14.5 °C 14.0 °C 1016.8 hPa Calm   6.9 km/h 93 % 0.0 mm
02:35 14.5 °C 14.0 °C 1016.8 hPa Calm   5.0 km/h 93 % 0.0 mm
02:40 14.5 °C 14.0 °C 1016.8 hPa NNE 3.5 km/h 5.0 km/h 93 % 0.0 mm
02:45 14.4 °C 13.0 °C 1016.8 hPa Calm   4.7 km/h 93 % 0.0 mm
02:50 14.4 °C 13.0 °C 1016.8 hPa Calm   4.3 km/h 94 % 0.0 mm
02:55 14.3 °C 13.0 °C 1016.8 hPa Calm   5.8 km/h 94 % 0.0 mm
03:00 14.3 °C 13.0 °C 1016.8 hPa Calm   5.8 km/h 94 % 0.0 mm
03:05 14.4 °C 13.0 °C 1016.1 hPa Calm   5.5 km/h 94 % 0.0 mm
03:10 14.4 °C 13.0 °C 1016.1 hPa Calm   4.3 km/h 94 % 0.0 mm
03:15 14.4 °C 13.0 °C 1016.1 hPa Calm   4.3 km/h 94 % 0.0 mm
03:16 14.4 °C 13.0 °C 1016.1 hPa Calm   5.8 km/h 94 % 0.0 mm
03:21 14.3 °C 13.0 °C 1016.1 hPa Calm   5.8 km/h 94 % 0.0 mm
03:26 14.2 °C 13.0 °C 1016.1 hPa Calm     94 % 0.0 mm
03:31 14.2 °C 13.0 °C 1016.1 hPa Calm     94 % 0.0 mm
03:36 13.9 °C 13.0 °C 1016.1 hPa Calm   3.2 km/h 94 % 0.0 mm
03:41 13.9 °C 13.0 °C 1016.1 hPa Calm   3.2 km/h 94 % 0.0 mm
03:46 13.9 °C 13.0 °C 1016.1 hPa North 4.0 km/h 5.5 km/h 94 % 0.0 mm
03:51 13.9 °C 13.0 °C 1016.1 hPa Calm   5.5 km/h 95 % 0.0 mm
03:56 13.9 °C 13.0 °C 1016.1 hPa Calm   4.3 km/h 95 % 0.0 mm
04:01 13.8 °C 13.0 °C 1016.1 hPa Calm   4.7 km/h 95 % 0.0 mm
04:06 13.9 °C 13.0 °C 1015.1 hPa Calm   5.0 km/h 95 % 0.0 mm
04:11 13.8 °C 13.0 °C 1015.1 hPa Calm   5.0 km/h 95 % 0.0 mm
04:17 13.7 °C 13.0 °C 1016.1 hPa Calm   5.8 km/h 95 % 0.0 mm
04:22 13.7 °C 13.0 °C 1016.1 hPa Calm   5.8 km/h 95 % 0.0 mm
04:27 13.7 °C 13.0 °C 1016.1 hPa Calm   4.3 km/h 95 % 0.0 mm
04:32 13.6 °C 13.0 °C 1016.1 hPa Calm     95 % 0.0 mm
04:37 13.4 °C 13.0 °C 1016.1 hPa Calm     94 % 0.0 mm
04:42 13.4 °C 13.0 °C 1016.1 hPa NNE 4.0 km/h 4.3 km/h 95 % 0.0 mm
04:47 13.4 °C 13.0 °C 1015.1 hPa Calm   4.3 km/h 95 % 0.0 mm
04:52 13.4 °C 13.0 °C 1015.1 hPa Calm   4.0 km/h 95 % 0.0 mm
04:57 13.4 °C 13.0 °C 1015.1 hPa Calm   4.0 km/h 95 % 0.0 mm
05:02 13.4 °C 13.0 °C 1015.1 hPa Calm   4.0 km/h 95 % 0.0 mm
05:07 13.4 °C 13.0 °C 1015.1 hPa NNE 2.1 km/h 3.5 km/h 96 % 0.0 mm
05:12 13.4 °C 13.0 °C 1015.1 hPa North 3.2 km/h 5.0 km/h 96 % 0.0 mm
05:17 13.3 °C 13.0 °C 1015.1 hPa Calm   5.0 km/h 96 % 0.0 mm
05:22 13.2 °C 13.0 °C 1015.1 hPa Calm   4.3 km/h 95 % 0.0 mm
05:26 13.2 °C 13.0 °C 1015.1 hPa Calm   6.4 km/h 96 % 0.0 mm
05:31 13.2 °C 13.0 °C 1015.1 hPa Calm   6.4 km/h 96 % 0.0 mm
05:36 13.2 °C 13.0 °C 1015.1 hPa North 4.7 km/h 6.4 km/h 96 % 0.0 mm
05:42 13.2 °C 13.0 °C 1015.1 hPa Calm   6.4 km/h 96 % 0.0 mm
05:47 13.2 °C 13.0 °C 1015.1 hPa NNE 4.3 km/h 6.4 km/h 96 % 0.0 mm
05:52 13.2 °C 13.0 °C 1015.1 hPa NE 3.2 km/h 6.1 km/h 97 % 0.0 mm
05:57 13.2 °C 13.0 °C 1015.1 hPa North 4.0 km/h 6.1 km/h 97 % 0.0 mm
06:02 13.2 °C 13.0 °C 1015.1 hPa Calm   5.8 km/h 97 % 0.0 mm
06:07 13.1 °C 13.0 °C 1015.1 hPa Calm   5.8 km/h 96 % 0.0 mm
06:12 13.0 °C 13.0 °C 1015.1 hPa Calm     96 % 0.0 mm
06:17 13.0 °C 13.0 °C 1014.1 hPa North 4.0 km/h 4.7 km/h 96 % 0.0 mm
06:22 13.1 °C 13.0 °C 1014.1 hPa North 3.5 km/h 5.8 km/h 97 % 0.0 mm
06:27 13.3 °C 13.0 °C 1014.1 hPa NNE 3.5 km/h 6.1 km/h 97 % 0.0 mm
06:32 13.4 °C 13.0 °C 1016.1 hPa NE 6.1 km/h 6.1 km/h 97 % 0.0 mm
06:37 13.5 °C 13.0 °C 1016.1 hPa Calm   6.4 km/h 97 % 0.0 mm
06:42 13.6 °C 13.0 °C 1016.1 hPa North 1.8 km/h 6.4 km/h 97 % 0.0 mm
06:47 13.7 °C 13.0 °C 1015.1 hPa Calm   5.5 km/h 97 % 0.0 mm
06:52 13.7 °C 13.0 °C 1015.1 hPa Calm   3.5 km/h 97 % 0.0 mm
06:57 14.2 °C 14.0 °C 1015.1 hPa Calm   2.1 km/h 97 % 0.0 mm
07:02 14.5 °C 14.0 °C 1015.1 hPa Calm     97 % 0.0 mm
07:07 14.8 °C 14.0 °C 1015.1 hPa Calm   1.8 km/h 97 % 0.0 mm
07:13 15.0 °C 15.0 °C 1015.1 hPa Calm   1.8 km/h 96 % 0.0 mm
07:18 15.2 °C 15.0 °C 1015.1 hPa Calm   4.0 km/h 96 % 0.0 mm
07:23 15.8 °C 15.0 °C 1015.1 hPa Calm   5.8 km/h 96 % 0.0 mm
07:28 15.9 °C 16.0 °C 1015.1 hPa Calm   5.8 km/h 96 % 0.0 mm
07:33 15.9 °C 16.0 °C 1015.1 hPa NE 2.1 km/h 7.6 km/h 96 % 0.0 mm
07:38 15.9 °C 16.0 °C 1015.1 hPa East 5.5 km/h 7.6 km/h 96 % 0.0 mm
07:43 15.9 °C 16.0 °C 1015.1 hPa NE 6.1 km/h 8.7 km/h 96 % 0.0 mm
07:48 17.5 °C 16.0 °C 1015.1 hPa East 1.8 km/h 9.0 km/h 91 % 0.0 mm
07:53 17.9 °C 16.0 °C 1015.1 hPa Calm   9.0 km/h 89 % 0.0 mm
07:58 18.1 °C 16.0 °C 1015.1 hPa ENE 9.0 km/h 9.7 km/h 88 % 0.0 mm
08:03 18.5 °C 16.0 °C 1015.1 hPa Calm   9.7 km/h 85 % 0.0 mm
08:08 18.7 °C 16.0 °C 1015.1 hPa Calm   8.7 km/h 85 % 0.0 mm
08:13 18.7 °C 16.0 °C 1015.1 hPa East 6.4 km/h 6.4 km/h 85 % 0.0 mm
08:18 18.7 °C 16.0 °C 1015.1 hPa ESE 4.0 km/h 8.7 km/h 85 % 0.0 mm
08:23 18.7 °C 16.0 °C 1015.1 hPa Calm   8.7 km/h 85 % 0.0 mm
08:28 18.7 °C 16.0 °C 1015.1 hPa Calm   7.6 km/h 85 % 0.0 mm
08:33 18.7 °C 16.0 °C 1015.1 hPa Calm   7.6 km/h 85 % 0.0 mm
08:38 18.7 °C 16.0 °C 1015.1 hPa ESE 9.0 km/h 9.7 km/h 85 % 0.0 mm
08:43 18.7 °C 16.0 °C 1015.1 hPa East 7.9 km/h 11.9 km/h 85 % 0.0 mm
08:48 18.7 °C 16.0 °C 1015.1 hPa Calm   11.9 km/h 85 % 0.0 mm
08:53 18.7 °C 16.0 °C 1015.1 hPa East 13.7 km/h 13.7 km/h 85 % 0.0 mm
08:58 18.7 °C 16.0 °C 1015.1 hPa Calm   13.7 km/h 85 % 0.0 mm
09:03 18.7 °C 16.0 °C 1015.1 hPa East 10.1 km/h 14.0 km/h 85 % 0.0 mm
09:08 18.7 °C 16.0 °C 1015.1 hPa ESE 5.0 km/h 14.0 km/h 85 % 0.0 mm
09:14 18.7 °C 16.0 °C 1015.1 hPa East 3.2 km/h 11.9 km/h 85 % 0.0 mm
09:19 18.7 °C 16.0 °C 1015.1 hPa ENE 4.3 km/h 12.6 km/h 85 % 0.0 mm
09:24 18.7 °C 16.0 °C 1015.1 hPa ESE 8.7 km/h 14.0 km/h 85 % 0.0 mm
09:29 18.7 °C 16.0 °C 1015.1 hPa NNE 12.6 km/h 14.0 km/h 85 % 0.0 mm
09:34 18.7 °C 16.0 °C 1015.1 hPa ENE 9.7 km/h 13.7 km/h 85 % 0.0 mm
09:39 18.7 °C 16.0 °C 1015.1 hPa East 6.9 km/h 13.0 km/h 85 % 0.0 mm
09:44 18.7 °C 16.0 °C 1015.1 hPa ESE 9.7 km/h 14.0 km/h 85 % 0.0 mm
09:49 18.7 °C 16.0 °C 1015.1 hPa ENE 10.1 km/h 14.0 km/h 85 % 0.0 mm
09:54 18.7 °C 16.0 °C 1015.1 hPa East 5.5 km/h 11.9 km/h 85 % 0.0 mm
09:59 18.7 °C 16.0 °C 1016.1 hPa ENE 2.6 km/h 13.7 km/h 85 % 0.0 mm
10:09 18.7 °C 16.0 °C 1016.1 hPa NE 5.5 km/h 14.0 km/h 85 % 0.0 mm
10:14 18.7 °C 16.0 °C 1016.1 hPa ENE 6.9 km/h 14.0 km/h 85 % 0.0 mm
10:19 18.7 °C 16.0 °C 1015.1 hPa East 10.5 km/h 12.2 km/h 85 % 0.0 mm
10:24 18.7 °C 16.0 °C 1015.1 hPa ESE 9.7 km/h 13.7 km/h 85 % 0.0 mm
10:29 18.7 °C 16.0 °C 1015.1 hPa ENE 8.7 km/h 13.7 km/h 85 % 0.0 mm
10:34 18.7 °C 16.0 °C 1015.1 hPa ENE 12.6 km/h 13.7 km/h 85 % 0.0 mm
10:39 18.7 °C 16.0 °C 1015.1 hPa East 9.7 km/h 14.3 km/h 85 % 0.0 mm
10:44 18.7 °C 16.0 °C 1015.1 hPa ESE 9.7 km/h 14.3 km/h 85 % 0.0 mm
10:49 18.7 °C 16.0 °C 1015.1 hPa Calm   12.6 km/h 85 % 0.0 mm
10:54 18.7 °C 16.0 °C 1015.1 hPa ESE 5.0 km/h 12.6 km/h 85 % 0.0 mm
11:00 18.7 °C 16.0 °C 1015.1 hPa ESE 5.8 km/h 13.0 km/h 85 % 0.0 mm
11:05 18.7 °C 16.0 °C 1015.1 hPa SE 6.9 km/h 13.7 km/h 85 % 0.0 mm
11:10 18.7 °C 16.0 °C 1015.1 hPa East 7.6 km/h 13.7 km/h 85 % 0.0 mm
11:15 18.7 °C 16.0 °C 1015.1 hPa NE 12.2 km/h 12.2 km/h 85 % 0.0 mm
11:20 18.7 °C 16.0 °C 1015.1 hPa ENE 6.4 km/h 12.2 km/h 85 % 0.0 mm
11:25 18.7 °C 16.0 °C 1015.1 hPa East 10.1 km/h 11.9 km/h 85 % 0.0 mm
11:30 18.7 °C 16.0 °C 1015.1 hPa NE 6.9 km/h 16.6 km/h 85 % 0.0 mm
11:35 18.7 °C 16.0 °C 1015.1 hPa ENE 9.3 km/h 16.6 km/h 85 % 0.0 mm
11:40 18.7 °C 16.0 °C 1015.1 hPa NE 9.3 km/h 12.6 km/h 85 % 0.0 mm
11:45 18.7 °C 16.0 °C 1014.1 hPa SE 4.3 km/h 12.6 km/h 85 % 0.0 mm
11:50 18.7 °C 16.0 °C 1014.1 hPa Calm   10.1 km/h 85 % 0.0 mm
11:55 18.7 °C 16.0 °C 1014.1 hPa ESE 5.5 km/h 10.5 km/h 85 % 0.0 mm
12:00 18.7 °C 16.0 °C 1014.1 hPa ENE 4.3 km/h 11.9 km/h 85 % 0.0 mm
12:06 18.7 °C 16.0 °C 1014.1 hPa SSE 7.9 km/h 16.3 km/h 85 % 0.0 mm
12:11 18.7 °C 16.0 °C 1014.1 hPa ESE 6.9 km/h 16.3 km/h 85 % 0.0 mm
12:16 18.7 °C 16.0 °C 1014.1 hPa ESE 6.1 km/h 11.9 km/h 85 % 0.0 mm
12:21 18.7 °C 16.0 °C 1014.1 hPa ESE 6.1 km/h 12.6 km/h 85 % 0.0 mm
12:26 18.7 °C 16.0 °C 1014.1 hPa ESE 11.6 km/h 13.7 km/h 85 % 0.0 mm
12:31 18.7 °C 16.0 °C 1014.1 hPa SE 10.5 km/h 16.6 km/h 85 % 0.0 mm
12:36 18.7 °C 16.0 °C 1014.1 hPa ESE 6.4 km/h 16.6 km/h 85 % 0.0 mm
12:41 18.7 °C 16.0 °C 1014.1 hPa East 10.8 km/h 14.0 km/h 85 % 0.0 mm
12:46 18.7 °C 16.0 °C 1014.1 hPa Calm   14.0 km/h 85 % 0.0 mm
12:51 26.4 °C 12.0 °C 1014.1 hPa East 4.7 km/h 10.5 km/h 40 % 0.0 mm
12:56 26.3 °C 12.0 °C 1014.1 hPa East 6.4 km/h 12.6 km/h 39 % 0.0 mm
13:01 26.7 °C 12.0 °C 1014.1 hPa ESE 4.0 km/h 12.6 km/h 40 % 0.0 mm
13:06 26.8 °C 12.0 °C 1014.1 hPa ESE 4.7 km/h 10.5 km/h 39 % 0.0 mm
13:11 26.8 °C 11.0 °C 1014.1 hPa ENE 7.9 km/h 13.0 km/h 38 % 0.0 mm
13:16 26.7 °C 11.0 °C 1014.1 hPa NE 7.9 km/h 13.7 km/h 38 % 0.0 mm
13:21 26.7 °C 11.0 °C 1014.1 hPa ESE 6.9 km/h 13.7 km/h 38 % 0.0 mm
13:26 27.2 °C 13.0 °C 1014.1 hPa ENE 1.8 km/h 10.8 km/h 39 % 0.0 mm
13:31 27.5 °C 12.0 °C 1014.1 hPa North 5.0 km/h 11.9 km/h 38 % 0.0 mm
13:36 27.4 °C 12.0 °C 1014.1 hPa NE 5.0 km/h 11.9 km/h 38 % 0.0 mm
13:42 27.4 °C 12.0 °C 1014.1 hPa ENE 11.9 km/h 14.3 km/h 37 % 0.0 mm
13:47 27.4 °C 12.0 °C 1013.1 hPa ENE 10.5 km/h 14.3 km/h 37 % 0.0 mm
13:52 27.6 °C 12.0 °C 1013.1 hPa NE 1.4 km/h 12.6 km/h 36 % 0.0 mm
13:57 27.6 °C 12.0 °C 1013.1 hPa ESE 6.4 km/h 10.5 km/h 36 % 0.0 mm
14:02 27.9 °C 12.0 °C 1013.1 hPa ENE 6.9 km/h 14.0 km/h 36 % 0.0 mm
14:07 27.9 °C 12.0 °C 1013.1 hPa ENE 11.1 km/h 14.0 km/h 36 % 0.0 mm
14:12 28.0 °C 12.0 °C 1013.1 hPa NE 3.2 km/h 13.0 km/h 36 % 0.0 mm
14:17 28.4 °C 12.0 °C 1013.1 hPa East 8.7 km/h 14.3 km/h 35 % 0.0 mm
14:22 27.8 °C 11.0 °C 1013.1 hPa NE 8.7 km/h 16.3 km/h 35 % 0.0 mm
14:27 27.8 °C 11.0 °C 1013.1 hPa ENE 11.6 km/h 16.9 km/h 35 % 0.0 mm
14:32 27.5 °C 11.0 °C 1013.1 hPa ENE 12.2 km/h 16.9 km/h 35 % 0.0 mm
14:37 27.6 °C 12.0 °C 1013.1 hPa ENE 6.9 km/h 14.0 km/h 36 % 0.0 mm
14:42 27.7 °C 11.0 °C 1013.1 hPa ENE 10.1 km/h 14.0 km/h 35 % 0.0 mm
14:48 27.7 °C 12.0 °C 1013.1 hPa NE 12.6 km/h 14.0 km/h 36 % 0.0 mm
14:53 27.7 °C 12.0 °C 1013.1 hPa NE 7.2 km/h 13.0 km/h 36 % 0.0 mm
14:58 27.7 °C 12.0 °C 1013.1 hPa East 8.7 km/h 12.6 km/h 36 % 0.0 mm
15:03 27.7 °C 12.0 °C 1012.1 hPa ENE 9.0 km/h 14.0 km/h 36 % 0.0 mm
15:08 27.7 °C 12.0 °C 1012.1 hPa NE 9.0 km/h 14.0 km/h 36 % 0.0 mm
15:13 27.7 °C 12.0 °C 1012.1 hPa East 3.2 km/h 14.0 km/h 36 % 0.0 mm
15:18 27.7 °C 12.0 °C 1014.1 hPa ENE 6.4 km/h 9.3 km/h 36 % 0.0 mm
15:23 27.7 °C 12.0 °C 1014.1 hPa East 9.0 km/h 10.1 km/h 36 % 0.0 mm
15:28 28.4 °C 12.0 °C 1014.1 hPa NNE 4.0 km/h 11.9 km/h 35 % 0.0 mm
15:33 28.4 °C 12.0 °C 1013.1 hPa East 2.6 km/h 12.2 km/h 35 % 0.0 mm
15:38 28.4 °C 12.0 °C 1013.1 hPa ENE 3.2 km/h 12.2 km/h 35 % 0.0 mm
15:43 28.5 °C 12.0 °C 1013.1 hPa ESE 8.7 km/h 10.1 km/h 34 % 0.0 mm
15:48 28.7 °C 12.0 °C 1013.1 hPa ESE 9.0 km/h 13.7 km/h 35 % 0.0 mm
15:53 29.1 °C 12.0 °C 1013.1 hPa SE 6.1 km/h 13.7 km/h 35 % 0.0 mm
15:58 28.8 °C 12.0 °C 1013.1 hPa ESE 5.5 km/h 11.1 km/h 34 % 0.0 mm
16:03 28.6 °C 11.0 °C 1013.1 hPa ENE 6.1 km/h 13.0 km/h 33 % 0.0 mm
16:08 28.7 °C 11.0 °C 1013.1 hPa East 6.4 km/h 14.0 km/h 33 % 0.0 mm
16:13 28.9 °C 12.0 °C 1013.1 hPa SSE 4.0 km/h 14.0 km/h 34 % 0.0 mm
16:18 28.8 °C 11.0 °C 1012.1 hPa East 11.1 km/h 12.6 km/h 33 % 0.0 mm
16:23 28.4 °C 11.0 °C 1012.1 hPa NE 4.7 km/h 12.6 km/h 33 % 0.0 mm
16:28 28.6 °C 11.0 °C 1012.1 hPa NE 11.9 km/h 12.2 km/h 33 % 0.0 mm
16:29 28.6 °C 11.0 °C 1012.1 hPa ENE 5.8 km/h 12.2 km/h 33 % 0.0 mm
16:34 28.9 °C 12.0 °C 1012.1 hPa ESE 9.0 km/h 12.2 km/h 33 % 0.0 mm
16:39 29.2 °C 12.0 °C 1012.1 hPa East 4.3 km/h 11.9 km/h 34 % 0.0 mm
16:44 29.7 °C 11.0 °C 1012.1 hPa ESE 9.0 km/h 14.0 km/h 32 % 0.0 mm
16:49 30.0 °C 11.0 °C 1012.1 hPa SE 13.7 km/h 14.0 km/h 31 % 0.0 mm
16:54 29.9 °C 11.0 °C 1012.1 hPa ESE 6.9 km/h 13.7 km/h 31 % 0.0 mm
16:59 29.7 °C 10.0 °C 1011.1 hPa East 9.7 km/h 12.6 km/h 30 % 0.0 mm
17:04 29.1 °C 10.0 °C 1011.1 hPa East 12.6 km/h 13.7 km/h 30 % 0.0 mm
17:09 28.7 °C 10.0 °C 1011.1 hPa ESE 6.9 km/h 13.7 km/h 31 % 0.0 mm
17:14 28.9 °C 11.0 °C 1012.1 hPa East 11.9 km/h 13.0 km/h 32 % 0.0 mm
17:19 28.8 °C 11.0 °C 1012.1 hPa ENE 8.7 km/h 13.7 km/h 32 % 0.0 mm
17:20 28.8 °C 11.0 °C 1012.1 hPa ENE 9.3 km/h 13.7 km/h 32 % 0.0 mm
17:25 28.7 °C 11.0 °C 1012.1 hPa NE 5.5 km/h 13.7 km/h 32 % 0.0 mm
17:30 28.7 °C 10.0 °C 1011.1 hPa NE 7.9 km/h 12.6 km/h 31 % 0.0 mm
17:35 28.8 °C 11.0 °C 1011.1 hPa East 6.9 km/h 14.0 km/h 32 % 0.0 mm
17:40 28.8 °C 11.0 °C 1011.1 hPa East 14.0 km/h 14.0 km/h 32 % 0.0 mm
17:45 28.3 °C 10.0 °C 1011.1 hPa ENE 5.8 km/h 14.0 km/h 32 % 0.0 mm
17:50 28.4 °C 10.0 °C 1011.1 hPa ENE 6.9 km/h 12.2 km/h 32 % 0.0 mm
17:55 28.2 °C 10.0 °C 1011.1 hPa East 4.0 km/h 12.6 km/h 32 % 0.0 mm
18:00 28.3 °C 11.0 °C 1011.1 hPa NE 5.8 km/h 12.6 km/h 33 % 0.0 mm
18:05 28.1 °C 11.0 °C 1011.1 hPa East 10.5 km/h 12.2 km/h 33 % 0.0 mm
18:10 28.0 °C 11.0 °C 1011.1 hPa NNE 11.9 km/h 11.9 km/h 33 % 0.0 mm
18:15 28.0 °C 11.0 °C 1011.1 hPa ESE 10.1 km/h 11.9 km/h 33 % 0.0 mm
18:20 28.2 °C 11.0 °C 1011.1 hPa ESE 6.1 km/h 11.1 km/h 33 % 0.0 mm
18:25 28.4 °C 11.0 °C 1011.1 hPa NNE 5.0 km/h 11.6 km/h 33 % 0.0 mm
18:30 28.4 °C 11.0 °C 1011.1 hPa NNE 9.0 km/h 11.6 km/h 33 % 0.0 mm
18:33 28.4 °C 11.0 °C 1011.1 hPa East 7.9 km/h 11.6 km/h 33 % 0.0 mm
18:38 28.4 °C 11.0 °C 1011.1 hPa East 10.1 km/h 10.1 km/h 33 % 0.0 mm
18:43 28.4 °C 11.0 °C 1011.1 hPa ENE 5.8 km/h 11.9 km/h 33 % 0.0 mm
18:48 28.5 °C 11.0 °C 1012.1 hPa ENE 10.5 km/h 12.6 km/h 33 % 0.0 mm
18:53 28.4 °C 10.0 °C 1012.1 hPa East 8.7 km/h 12.6 km/h 32 % 0.0 mm
18:58 28.4 °C 10.0 °C 1011.1 hPa ENE 4.0 km/h 11.9 km/h 32 % 0.0 mm
19:03 28.4 °C 10.0 °C 1011.1 hPa ENE 6.1 km/h 11.9 km/h 32 % 0.0 mm
19:08 28.4 °C 10.0 °C 1011.1 hPa ENE 6.1 km/h 11.9 km/h 32 % 0.0 mm
19:13 28.4 °C 10.0 °C 1010.0 hPa Calm   10.5 km/h 32 % 0.0 mm
19:19 28.4 °C 10.0 °C 1010.0 hPa ENE 9.7 km/h 11.1 km/h 32 % 0.0 mm
19:24 28.4 °C 10.0 °C 1010.0 hPa ESE 6.9 km/h 11.1 km/h 32 % 0.0 mm
19:29 28.4 °C 10.0 °C 1011.1 hPa ESE 6.1 km/h 12.6 km/h 32 % 0.0 mm
19:34 28.4 °C 10.0 °C 1011.1 hPa ESE 6.4 km/h 12.6 km/h 32 % 0.0 mm
19:39 27.6 °C 10.0 °C 1011.1 hPa ENE 5.0 km/h 10.8 km/h 33 % 0.0 mm
19:44 27.4 °C 10.0 °C 1010.0 hPa SE 7.9 km/h 10.1 km/h 33 % 0.0 mm
19:49 27.1 °C 10.0 °C 1010.0 hPa NE 2.6 km/h 9.7 km/h 33 % 0.0 mm
19:54 27.1 °C 10.0 °C 1010.0 hPa Calm   9.7 km/h 33 % 0.0 mm
19:59 27.1 °C 10.0 °C 1010.0 hPa ENE 5.5 km/h 7.9 km/h 33 % 0.0 mm
20:04 27.1 °C 10.0 °C 1010.0 hPa Calm   7.9 km/h 33 % 0.0 mm
20:09 27.1 °C 10.0 °C 1010.0 hPa Calm   9.0 km/h 33 % 0.0 mm
20:14 27.1 °C 10.0 °C 1010.0 hPa East 5.5 km/h 9.7 km/h 33 % 0.0 mm
20:19 27.1 °C 10.0 °C 1010.0 hPa Calm   9.7 km/h 33 % 0.0 mm
20:24 27.1 °C 10.0 °C 1010.0 hPa Calm   6.4 km/h 33 % 0.0 mm
20:29 27.1 °C 10.0 °C 1011.1 hPa Calm   6.1 km/h 33 % 0.0 mm
20:34 27.1 °C 10.0 °C 1011.1 hPa East 5.5 km/h 6.1 km/h 33 % 0.0 mm
20:39 27.1 °C 10.0 °C 1011.1 hPa Calm   5.8 km/h 33 % 0.0 mm
20:44 27.1 °C 10.0 °C 1011.1 hPa Calm   6.4 km/h 33 % 0.0 mm
20:49 27.1 °C 10.0 °C 1011.1 hPa ENE 4.0 km/h 6.9 km/h 33 % 0.0 mm
20:54 27.1 °C 10.0 °C 1011.1 hPa Calm   6.9 km/h 33 % 0.0 mm
20:59 27.1 °C 10.0 °C 1010.0 hPa ENE 4.3 km/h 4.7 km/h 33 % 0.0 mm
21:04 27.1 °C 10.0 °C 1010.0 hPa NE 4.0 km/h 4.3 km/h 33 % 0.0 mm
21:09 27.1 °C 10.0 °C 1010.0 hPa ENE 3.2 km/h 6.4 km/h 33 % 0.0 mm
21:14 27.1 °C 10.0 °C 1011.1 hPa NNE 9.0 km/h 9.0 km/h 33 % 0.0 mm
21:19 27.1 °C 10.0 °C 1011.1 hPa NE 7.2 km/h 10.5 km/h 33 % 0.0 mm
21:25 23.0 °C 11.0 °C 1011.1 hPa ENE 10.1 km/h 10.5 km/h 45 % 0.0 mm
21:30 22.9 °C 11.0 °C 1011.1 hPa East 10.5 km/h 11.9 km/h 45 % 0.0 mm
21:35 22.8 °C 11.0 °C 1011.1 hPa East 9.3 km/h 11.9 km/h 46 % 0.0 mm
21:40 22.7 °C 11.0 °C 1011.1 hPa ENE 10.5 km/h 11.6 km/h 46 % 0.0 mm
21:45 22.6 °C 11.0 °C 1011.1 hPa NE 7.9 km/h 11.6 km/h 47 % 0.0 mm
21:50 22.4 °C 11.0 °C 1011.1 hPa NE 6.9 km/h 10.1 km/h 47 % 0.0 mm
21:55 22.3 °C 11.0 °C 1011.1 hPa ENE 9.3 km/h 12.6 km/h 47 % 0.0 mm
22:00 22.3 °C 11.0 °C 1011.1 hPa ENE 5.8 km/h 12.6 km/h 48 % 0.0 mm
22:05 22.2 °C 11.0 °C 1011.1 hPa ENE 5.8 km/h 10.1 km/h 48 % 0.0 mm
22:10 22.1 °C 11.0 °C 1011.1 hPa ENE 5.0 km/h 9.0 km/h 48 % 0.0 mm
22:15 22.0 °C 11.0 °C 1011.1 hPa NE 6.4 km/h 8.7 km/h 49 % 0.0 mm
22:20 21.8 °C 11.0 °C 1011.1 hPa ENE 4.7 km/h 7.9 km/h 50 % 0.0 mm
22:25 21.6 °C 11.0 °C 1011.1 hPa Calm   7.9 km/h 50 % 0.0 mm
22:30 21.6 °C 11.0 °C 1011.1 hPa NE 4.0 km/h 6.4 km/h 50 % 0.0 mm
22:35 0.0 °C 11.0 °C 1011.1 hPa ENE 1.4 km/h 6.9 km/h 0 % 0.0 mm
22:41 21.4 °C 11.0 °C 1011.1 hPa Calm   6.9 km/h 51 % 0.0 mm
22:46 21.1 °C 11.0 °C 1011.1 hPa Calm   6.1 km/h 52 % 0.0 mm
22:51 20.9 °C 11.0 °C 1011.1 hPa East 4.7 km/h 4.7 km/h 53 % 0.0 mm
22:56 20.8 °C 11.0 °C 1011.1 hPa Calm   4.7 km/h 53 % 0.0 mm
23:01 20.6 °C 11.0 °C 1011.1 hPa Calm   4.7 km/h 54 % 0.0 mm
23:06 20.5 °C 11.0 °C 1011.1 hPa Calm   4.3 km/h 55 % 0.0 mm
23:11 20.4 °C 11.0 °C 1011.1 hPa ENE 6.1 km/h 7.2 km/h 55 % 0.0 mm
23:16 20.3 °C 11.0 °C 1010.0 hPa East 5.0 km/h 7.9 km/h 56 % 0.0 mm
23:21 20.2 °C 12.0 °C 1010.0 hPa Calm   7.9 km/h 57 % 0.0 mm
23:26 20.1 °C 11.0 °C 1010.0 hPa Calm   4.7 km/h 57 % 0.0 mm
23:31 20.0 °C 12.0 °C 1010.0 hPa Calm     58 % 0.0 mm
23:36 19.9 °C 12.0 °C 1010.0 hPa Calm   4.0 km/h 59 % 0.0 mm
23:41 19.8 °C 12.0 °C 1010.0 hPa Calm   5.5 km/h 60 % 0.0 mm
23:46 19.8 °C 12.0 °C 1010.0 hPa Calm   5.8 km/h 60 % 0.0 mm
23:51 19.7 °C 12.0 °C 1010.0 hPa Calm   5.8 km/h 60 % 0.0 mm
23:56 19.6 °C 12.0 °C 1010.0 hPa Calm   5.0 km/h 61 % 0.0 mm
Le Gheer Warneton
Courtoisie de Weather Underground - 2.25 mb

Mise a jour : 18/12/2017 23:22:12
Généré par Cumulus 1.9.4 (1099)